Weather History for Kalispell, MT

Change the Weather History Date:

Saturday, November 24, 2012

  Actual Average Record
Temperature  
Mean Temperature 35 °F 29 °F  
Max Temperature 40 °F 36 °F 56 °F (1933)
Min Temperature 29 °F 22 °F -14 °F (1993)
Degree Days  
Heating Degree Days 30 36  
Month to date heating degree days 692 772  
Since 1 July heating degree days 1775 1980  
Cooling Degree Days 0 0  
Month to date cooling degree days 0 0  
Year to date cooling degree days 192 147  
Moisture  
Dew Point 33 °F    
Average Humidity 96    
Maximum Humidity 100    
Minimum Humidity 92    
Precipitation  
Precipitation 0.18 in 0.05 in 0.71 in (1958)
Month to date precipitation 1.35 1.14  
Year to date precipitation 18.96 15.14  
Snow  
Snow 0.00 in - - ()
Month to date snowfall 0.3  
Year to date snowfall 27.4  
Since 1 July snowfall 2.3  
Snow Depth 0.00 in    
Sea Level Pressure  
Sea Level Pressure 30.06 in    
Wind  
Wind Speed 5 mph (South)    
Max Wind Speed 14 mph    
Max Gust Speed 20 mph    
Visibility 7 miles    
Events Fog , Rain    
T = Trace of Precipitation, MM = Missing Value Source: NWS Daily Summary

Daily Weather History Graph

Daily Weather History Graph

Search for Another Location

Airport:

Trip Planner

Search our weather history database for the weather conditions in past years. The results will help you decide how hot, cold, wet, or windy it might be!

Date:

Astronomy

Nov. 24, 2012 Rise Set
Actual Time 7:58 AM MST 4:49 PM MST
Civil Twilight 7:23 AM MST 5:24 PM MST
Nautical Twilight 6:44 AM MST 6:02 PM MST
Astronomical Twilight 6:07 AM MST 6:40 PM MST
Moon 2:47 PM MST (11/24) 4:05 AM MST (11/24)
Length of Visible Light 10h 00m
Length of Day
8h 50m
Waxing Gibbous, 87% of the Moon is Illuminated
Nov 24
Waxing Gibbous
Nov 28
Full
Dec 6
Last Quarter
Dec 13
New
Dec 19
First Quarter

Hourly Weather History & Observations

Time (MST) Temp. Windchill Dew Point Humidity Pressure Visibility Wind Dir Wind Speed Gust Speed Precip Events Conditions
12:14 AM 32.0 °F - 30.2 °F 93% 30.02 in 10.0 mi North - - 0.01 in   Overcast
12:53 AM 32.0 °F - 30.2 °F 93% 30.01 in 10.0 mi North - - N/A   Overcast
12:55 AM 32.0 °F - 30.9 °F 96% 30.08 in 10.0 mi North - - 0.02 in   Overcast
1:26 AM 33.8 °F - 32.0 °F 93% 30.01 in 6.0 mi Calm Calm - 0.01 in Rain Rain
1:55 AM 33.1 °F 27.7 °F 32.0 °F 96% 30.07 in 9.0 mi SSW 5.8 mph - 0.04 in Rain Light Rain
2:55 AM 37.0 °F 31.6 °F 36.0 °F 96% 30.06 in 8.0 mi SSW 6.9 mph - 0.02 in Rain Light Rain
3:55 AM 39.9 °F 32.9 °F 37.9 °F 93% 30.05 in 10.0 mi SSE 11.5 mph - 0.01 in Rain Light Rain
4:04 AM 39.2 °F 31.2 °F 37.4 °F 93% 29.98 in 10.0 mi SSE 13.8 mph - 0.00 in Rain Light Rain
4:55 AM 39.9 °F 32.9 °F 37.9 °F 93% 30.04 in 10.0 mi South 11.5 mph - 0.03 in Rain Light Rain
5:33 AM 39.2 °F 33.6 °F 37.4 °F 93% 29.98 in 10.0 mi South 8.1 mph - 0.00 in Rain Light Rain
5:40 AM 39.2 °F 32.5 °F 39.2 °F 100% 29.98 in 10.0 mi South 10.4 mph - 0.00 in   Overcast
5:55 AM 37.9 °F 32.1 °F 37.0 °F 97% 30.05 in 10.0 mi SSW 8.1 mph - 0.00 in   Overcast
6:55 AM 37.0 °F 31.0 °F 36.0 °F 96% 30.04 in 10.0 mi SW 8.1 mph - N/A   Overcast
7:55 AM 33.1 °F 26.1 °F 32.0 °F 96% 30.05 in 10.0 mi SW 8.1 mph - N/A   Scattered Clouds
8:55 AM 36.0 °F - 34.0 °F 93% 30.06 in 10.0 mi Calm Calm - N/A   Overcast
9:55 AM 37.0 °F - 36.0 °F 96% 30.09 in 4.0 mi Calm Calm - 0.02 in Rain Rain
10:03 AM 37.4 °F 34.9 °F 35.6 °F 93% 30.02 in 4.0 mi SSW 3.5 mph - 0.01 in Rain Light Rain
10:18 AM 39.2 °F 37.0 °F 35.6 °F 87% 30.02 in 10.0 mi Variable 3.5 mph - 0.02 in Rain Light Rain
10:55 AM 39.0 °F 34.8 °F 35.1 °F 86% 30.10 in 10.0 mi NW 5.8 mph - 0.02 in   Overcast
11:55 AM 37.9 °F 32.7 °F 34.0 °F 86% 30.11 in 10.0 mi Variable 6.9 mph 16.1 mph 0.00 in Rain Light Rain
12:29 PM 35.6 °F - 33.8 °F 93% 30.04 in 5.0 mi Calm Calm - 0.02 in Rain Light Rain
12:40 PM 37.4 °F - 32.0 °F 81% 30.04 in 10.0 mi Calm Calm - 0.03 in Rain Light Rain
12:55 PM 37.0 °F 34.5 °F 34.0 °F 89% 30.12 in 10.0 mi ESE 3.5 mph - 0.03 in   Overcast
1:55 PM 37.0 °F 31.6 °F 35.1 °F 93% 30.12 in 10.0 mi SE 6.9 mph - N/A   Mostly Cloudy
2:55 PM 37.9 °F 32.7 °F 35.1 °F 89% 30.11 in 10.0 mi SSE 6.9 mph - N/A   Overcast
3:55 PM 37.9 °F 35.5 °F 36.0 °F 93% 30.11 in 10.0 mi South 3.5 mph - N/A   Overcast
4:55 PM 37.0 °F - 35.1 °F 93% 30.12 in 10.0 mi Calm Calm - N/A   Overcast
5:55 PM 35.1 °F 31.0 °F 34.0 °F 96% 30.12 in 10.0 mi South 4.6 mph - N/A   Overcast
6:55 PM 33.1 °F 30.0 °F 33.1 °F 100% 30.12 in 10.0 mi NNE 3.5 mph - N/A   Overcast
7:53 PM 30.2 °F 26.7 °F 30.2 °F 100% 30.04 in 6.0 mi North 3.5 mph - N/A   Overcast
7:55 PM 30.9 °F - 30.0 °F 96% 30.12 in 7.0 mi Calm Calm - N/A   Overcast
8:13 PM 30.2 °F - 30.2 °F 100% 30.04 in 3.0 mi Calm Calm - N/A   Overcast
8:24 PM 32.0 °F - 32.0 °F 100% 30.03 in 1.5 mi Calm Calm - N/A   Mostly Cloudy
8:27 PM 30.2 °F - 30.2 °F 100% 30.03 in 0.8 mi Calm Calm - N/A   Mostly Cloudy
8:40 PM 28.4 °F - 28.4 °F 100% 30.03 in 0.5 mi Calm Calm - N/A Fog Light Freezing Fog
8:47 PM 30.2 °F - 28.4 °F 93% 30.03 in 0.2 mi Calm Calm - N/A Fog Light Freezing Fog
8:55 PM 28.9 °F 25.2 °F 28.0 °F 96% 30.11 in 0.2 mi NNE 3.5 mph - N/A Fog Light Freezing Fog
9:55 PM 30.0 °F - 30.0 °F 100% 30.10 in 0.2 mi Calm Calm - N/A Fog Light Freezing Fog
10:34 PM 30.2 °F - 30.2 °F 100% 30.03 in 0.2 mi Calm Calm - N/A Fog Light Freezing Fog
10:47 PM 30.2 °F - 30.2 °F 100% 30.03 in 0.5 mi Calm Calm - N/A Fog Light Freezing Fog
10:55 PM 30.9 °F - 30.0 °F 96% 30.09 in 0.2 mi Calm Calm - N/A Fog Light Freezing Fog
11:55 PM 30.9 °F - 30.9 °F 100% 30.09 in 0.2 mi Calm Calm - N/A Fog Light Freezing Fog